Location: Ferma
(41.9500°N, 44.5167°E)
Time: 19:20:53
(UTC+00:00)

CZ-2C R/B - Pass Details

Date: 01 June 2022
Orbit: 381 x 549 km, 35.0° (Epoch: 28 June)

Event Time Altitude Azimuth Distance (km) Brightness Sun altitude
Exits shadow 00:28:40 12° 200° (SSW) 1,322 2.7 -9.9°
Maximum altitude 00:30:25 17° 164° (SSE) 1,114 2.6 -9.6°
Drops below altitude 10° 00:32:40 10° 122° (ESE) 1,485 3.8 -9.3°
Sets 00:35:21 0° 101° (E) 2,388 5.2 -8.9°
